Home > Weather > Faridabad > Past weeks

Flag for India Weather for the Past 2 Weeks in Faridabad, Haryana, India

Now
81 °F

Haze.


Feels Like: 79 °F
Forecast: 77 / 108 °F
Wind: No wind

Location: New Delhi Palam Airport

Current Time: Apr 30, 2016 at 3:10:25 AM

Latest Report: Apr 30, 2016 at 2:30 AM


Visibility: 1 mi

Pressure: 29.71 "Hg

Humidity: 23%

Dew Point: 39 °F

Location of FaridabadLocation

Historic Weather in Faridabad — Graph

°F

Faridabad Temperature Yesterday

Maximum temperature yesterday: 108 °F (at 1:00 PM)
Minimum temperature yesterday: 75 °F (at 5:30 AM)
Average temperature yesterday: 92 °F

High & Low Weather Summary for the Past Weeks

 TemperatureHumidityPressure
High111 °F (Apr 16, 2:30 PM)47% (Apr 21, 6:30 AM)29.83 "Hg (Apr 21, 6:30 AM)
Low72 °F (Apr 24, 4:30 AM)6% (Apr 25, 3:00 PM)29.53 "Hg (Apr 22, 4:30 PM)
Average92 °F20%29.70 "Hg
* Reported Apr 15 1:30 AM — Apr 30 2:00 AM, Faridabad, Weather by CustomWeather, © 2016

Note: Actual official high and low records may vary slightly from our data, if they occured in-between our weather recording intervals... More about our weather records

Advertising

Faridabad Weather History for the Previous 24 Hours

Scroll right to see more
 ConditionsComfort  
Time TempWeatherWind HumidityBarometerVisibility
2:00 AM
Sat, Apr 30
81 °FHaze.No wind23%29.71 "Hg1 mi
1:30 AM82 °FHaze.No wind21%29.71 "Hg1 mi
1:00 AM82 °FHaze.No wind21%29.71 "Hg1 mi
12:30 AM86 °FHaze.3 mph19%29.74 "Hg1 mi
12:00 AM86 °FHaze.3 mph19%29.74 "Hg1 mi
11:30 PM
Fri, Apr 29
88 °FHaze.7 mph18%29.74 "Hg1 mi
11:00 PM90 °FHaze.6 mph17%29.74 "Hg1 mi
10:30 PM90 °FHaze.6 mph17%29.74 "Hg1 mi
10:00 PM90 °FHaze.5 mph16%29.74 "Hg1 mi
9:30 PM90 °FHaze.3 mph15%29.74 "Hg1 mi
9:00 PM91 °FHaze.No wind13%29.74 "Hg1 mi
8:30 PM93 °FHaze.No wind12%29.71 "Hg2 mi
8:00 PM95 °FHaze.3 mph11%29.71 "Hg2 mi
7:30 PM99 °FHaze.7 mph10%29.71 "Hg2 mi
7:00 PM100 °FHaze.7 mph8%29.71 "Hg2 mi
6:30 PM102 °FHaze.7 mph7%29.68 "Hg2 mi
6:00 PM104 °FHaze.10 mph7%29.68 "Hg2 mi
5:30 PM106 °FHaze.14 mph7%29.68 "Hg2 mi
4:30 PM108 °FHaze.12 mph7%29.68 "Hg2 mi
3:30 PM108 °FHaze.12 mph8%29.71 "Hg2 mi
3:00 PM108 °FHaze.9 mph8%29.71 "Hg2 mi
2:30 PM108 °FHaze.10 mph8%29.71 "Hg2 mi
2:00 PM108 °FHaze.9 mph8%29.74 "Hg2 mi
1:30 PM108 °FHaze.8 mph8%29.74 "Hg2 mi
1:00 PM108 °FHaze.10 mph8%29.74 "Hg2 mi
12:30 PM106 °FHaze.9 mph9%29.77 "Hg2 mi
11:30 AM104 °FHaze.6 mph11%29.77 "Hg1 mi
10:00 AM97 °FHaze.7 mph13%29.80 "Hg1 mi
9:30 AM95 °FPassing clouds.7 mph12%29.77 "Hg1 mi
9:00 AM90 °FPassing clouds.7 mph15%29.77 "Hg1 mi
8:30 AM86 °FPassing clouds.7 mph17%29.77 "Hg1 mi
8:00 AM82 °FPassing clouds.7 mph19%29.77 "Hg1 mi
7:00 AM77 °FPassing clouds.6 mph34%29.74 "Hg1 mi
6:30 AM75 °FPassing clouds.3 mph36%29.74 "Hg1 mi
5:30 AM75 °FPassing clouds.3 mph36%29.71 "Hg1 mi
5:00 AM77 °FPassing clouds.No wind34%29.71 "Hg1 mi
4:30 AM77 °FPassing clouds.5 mph36%29.71 "Hg1 mi
4:00 AM77 °FHaze.5 mph36%29.71 "Hg1 mi
3:30 AM77 °FHaze.5 mph36%29.71 "Hg1 mi
3:00 AM81 °FHaze.No wind26%29.71 "Hg1 mi
Weather by CustomWeather, © 2016

See weather overviewHow to use our weather pages